Location: Pradons
(44.4746°N, 4.3578°E)
Time: 15:57:50
(UTC+00:00)

STARLINK-1143 - Pass Details

Date: 09 April 2020
Orbit: 549 x 550 km, 53.0° (Epoch: 28 May)

Event Time Altitude Azimuth Distance (km) Brightness Sun altitude
Rises 19:49:55 0° 303° (WNW) 2,733 9.0 -15.8°
Reaches altitude 10° 19:52:14 10° 310° (NW) 1,837 7.6 -16.1°
Maximum altitude 19:56:15 45° 24° (NNE) 762 4.3 -16.8°
Enters shadow 19:58:02 28° 80° (E) 1,060 4.6 -17.0°
